Location: St. Louis
(38.6270°N, 90.1994°W)
Time: 00:30:00
(UTC-06:00)

Courier 1B Rocket - Pass Details

Date: 07 December 2021
Orbit: 920 x 1202 km, 28.2° (Epoch: 16 January)

Event Time Altitude Azimuth Distance (km) Brightness Sun altitude
Rises 22:11:54 0° 246° (WSW) 3,750 - -63.3°
Reaches altitude 10° 22:14:56 10° 237° (WSW) 2,754 - -63.8°
Maximum altitude 22:20:42 32° 176° (S) 1,574 - -64.8°
Drops below altitude 10° 22:26:13 10° 115° (ESE) 2,629 - -65.7°
Sets 22:29:02 0° 106° (ESE) 3,556 - -66.1°
